Regional Weather Roundup
Issued by NWS

Home | Current Version | Previous Version | Text Only | Print | Product List | Glossary On
Versions: 1 2 3 4 5 6 7 8 9 10 11 12 13 14 15 16 17 18 19 20 21 22 23 24 25 26 27 28 29 30 31 32 33 34 35 36 37 38 39 40 41 42 43 44 45 46 47 48 49 50
000
ASUS42 KTBW 141011
RWRFL

FLORIDA REGIONAL WEATHER ROUNDUP
NATIONAL WEATHER SERVICE MELBOURNE FL
500 AM EST SUN FEB 14 2016

NOTE: "FAIR" INDICATES FEW OR NO CLOUDS BELOW 12,000 FEET WITH
NO SIGNIFICANT WEATHER AND/OR OBSTRUCTIONS TO VISION.

FLZ001>010-012>015-141100-
PANHANDLE OF FLORIDA

CITY           SKY/WX    TMP DP  RH WIND       PRES   REMARKS
PENSACOLA      PTCLDY    41  20  43 VRB6      30.27F WCI  37
MILTON NAS     CLOUDY    35  17  47 NE6       30.28S WCI  30
PENSACOLA NAS  PTCLDY    42  24  49 NE8       30.27F WCI  37
CRESTVIEW      CLEAR     29  23  78 CALM      30.30S
VALPARAISO     CLEAR     40  15  36 E9        30.27S WCI  34
MARY ESTHER    CLEAR     38  15  39 NE5       30.27R WCI  35
DESTIN         NOT AVBL
PANAMA CITY    FAIR      37  23  56 N7        30.28S WCI  32
TYNDALL AFB    CLEAR     40  24  52 NE8       30.28S WCI  35
APALACHICOLA   CLEAR     38  25  59 NE7       30.27F WCI  33

STATION/POSITION TIME  TEMP    WIND        PRES    WAVE   SWELL
                       AIR SEA DIR/SP/G            HT/PER HT/PER
                 (UTC) (F)     (DEG/KT/KT) (MB)    (FT/S) (FT/S)
28.8N   86.0W    0950   58 68   80/ 16/ 19 1023.8F   3/ 5
28.5N   84.5W    0950   56 66   70/ 17/ 21 1023.8S   5/ 5
$$

FLZ011-016>039-141100-
NORTH FLORIDA

CITY           SKY/WX    TMP DP  RH WIND       PRES   REMARKS
MARIANNA       CLEAR     34  24  67 NE6       30.30S WCI  29
TALLAHASSEE    CLEAR     41  15  35 NE6       30.30S WCI  37
PERRY          CLEAR     37  20  51 N5        30.30F WCI  33
CROSS CITY       N/A     36  23  59 NE5       30.29S WCI  32
GAINESVILLE    CLEAR     37  25  61 CALM      30.28S
MAYPORT NAS    CLEAR     45  38  76 N5        30.28F
JACKSONVILLE   CLEAR     36  27  69 N3        30.29S
JAX NAS        CLEAR     43  32  65 N10       30.29  WCI  37
JAX CRAIG      CLEAR     39  36  89 N6        30.28F WCI  35
JAX CECIL      CLEAR     32  27  80 CALM      30.29S
FERNANDINA BEA FAIR      41  36  81 CALM      30.27F
ST AUGUSTINE   CLEAR     41  35  79 CALM      30.28S

STATION/POSITION TIME  TEMP    WIND        PRES    WAVE   SWELL
                       AIR SEA DIR/SP/G            HT/PER HT/PER
                 (UTC) (F)     (DEG/KT/KT) (MB)    (FT/S) (FT/S)
FERNANDINA       0948   43 55              1025.6F
KEATON BEACH     1000   39      40/  7/  9 1025.2F
MAYPORT          0948   45 56              1025.1F
31.4N   80.9W    0950   49 53   60/ 10/ 12 1026.5F   2/ 8   2/ 8
ST AUGUSTINE FP  1000   53 56   30/ 13/ 15 1025.5F
$$

FLZ040-043>046-052-053-057-058-063-141100-
CENTRAL FLORIDA

CITY           SKY/WX    TMP DP  RH WIND       PRES   REMARKS
OCALA          CLEAR     36  28  75 CALM      30.26F
THE VILLAGES     N/A     43  39  87 CALM      30.16S
LEESBURG       CLEAR     43  38  82 N6        30.26F WCI  39
DELAND           N/A     39  36  87 CALM      30.27S
SANFORD        CLEAR     45  38  76 N6        30.25S
ORLANDO EXEC   CLEAR     48  37  65 N8        30.25S
ORLANDO INTL   CLEAR     44  38  79 N8        30.24F WCI  39
WINTER HAVEN   CLEAR     46  38  73 N7        30.25S
LAKELAND       CLEAR     45  37  76 N6        30.25R
BARTOW         FAIR      46  36  66 CALM      30.25R
OKEECHOBEE     PTCLDY    43  41  93 N6        30.21S WCI  39
$$

FLZ041-047-054-059-064-141100-
EAST CENTRAL FLORIDA

CITY           SKY/WX    TMP DP  RH WIND       PRES   REMARKS
DAYTONA BEACH  CLEAR     41  37  86 W3        30.26R
JFK SPACE CTR  CLEAR     49  41  74 N5        30.22S
CAPE CANAVERAL CLEAR     52  44  73 NW7       30.21S
PATRICK AFB    CLEAR     55  46  73 N8        30.21F
MELBOURNE      CLEAR     48  42  80 N7        30.21F
VERO BEACH     CLEAR     56  44  64 NE9       30.20F
FORT PIERCE    CLEAR     44  43  96 CALM      30.20S
STUART           N/A     63  43  48 NE7       30.19F

STATION/POSITION TIME  TEMP    WIND        PRES    WAVE   SWELL
                       AIR SEA DIR/SP/G            HT/PER HT/PER
                 (UTC) (F)     (DEG/KT/KT) (MB)    (FT/S) (FT/S)
28.5N   80.2W    0950   61 74   50/ 14/ 17 1023.0F   5/ 8   3/ 8
28.9N   78.5W    0950   60 72              1023.2R   5/ 7
$$

FLZ042-048>051-055-056-060-061-141100-
WEST CENTRAL FLORIDA

CITY           SKY/WX    TMP DP  RH WIND       PRES   REMARKS
CRYSTAL RIVER  FAIR      37  28  70 CALM      30.27R
INVERNESS      FAIR      41  37  87 NE3       30.27S
BROOKSVILLE    CLEAR     43  36  76 NE8       30.26S WCI  38
ZEPHYRHILLS    FAIR      41  38  89 N3        30.26R
CLEARWATER     CLEAR     50  37  61 NE9       30.24F
TAMPA INTL     PTCLDY    47  38  71 NE7       30.24F
TAMPA EXEC     CLEAR     45  39  81 CALM      30.25F
PLANT CITY     CLEAR     45  43  93 NE3       30.26S
MACDILL AFB    CLEAR     45  40  82 NE8       30.22F
PETER O KNIGHT PTCLDY    48  41  76 NE9       30.24F
ST PETERSBURG  CLEAR     52  41  66 NE14      30.22F
SARASOTA       CLEAR     47  40  76 NE8       30.22S
VENICE ARPT    FAIR      46  43  87 NE9       30.23S

STATION/POSITION TIME  TEMP    WIND        PRES    WAVE   SWELL
                       AIR SEA DIR/SP/G            HT/PER HT/PER
                 (UTC) (F)     (DEG/KT/KT) (MB)    (FT/S) (FT/S)
28.5N   84.5W    0950   56 66   70/ 17/ 21 1023.8S   5/ 5
CEDAR KEY        1000   42      30/  7/ 10 1025.4F
VENICE           1000   49 61   40/  7/  9 1023.0F
$$

FLZ062-065-066-069-070-075>078-141100-
SOUTHWEST FLORIDA AND KEYS

CITY           SKY/WX    TMP DP  RH WIND       PRES   REMARKS
PUNTA GORDA    CLEAR     45  43  93 NE8       30.23S
FT MYERS       CLEAR     50  43  77 NE9       30.19S
SOUTHWEST INTL CLEAR     50  42  74 NE9       30.20R
NAPLES         CLEAR     52  44  74 NE12      30.18S
MARATHON       CLEAR     62  57  83 NE13      30.14S
KEY WEST NAS   CLEAR     63  58  83 NE14      30.14S
KEY WEST INTL  CLEAR     63  60  90 NE12G22   30.14S

STATION/POSITION TIME  TEMP    WIND        PRES    WAVE   SWELL
                       AIR SEA DIR/SP/G            HT/PER HT/PER
                 (UTC) (F)     (DEG/KT/KT) (MB)    (FT/S) (FT/S)
VENICE           1000   49 61   40/  7/  9 1023.0F
26.0N   85.6W    0950   67 79   60/ 17/ 23 1021.5F   5/ 7
SAND KEY         0950   64      50/ 19/ 20 1020.5F
LONG KEY         1000   63 65   30/ 19/ 22 1021.2S
$$

FLZ067-068-071>074-168-172>174-141100-
SOUTHEAST FLORIDA

CITY           SKY/WX    TMP DP  RH WIND       PRES   REMARKS
W PALM BEACH   PTCLDY    53  47  79 NW6       30.18F
POMPANO BEACH  CLEAR     57  52  83 N7        30.16F
FT LAUDER-EXEC CLEAR     57  49  74 N5        30.16S
FT LAUDERDALE  PTCLDY    57  51  80 N7        30.16S
PEMBROKE PINES CLEAR     56  50  80 N6        30.18S
OPA LOCKA      CLEAR     59  51  75 N7        30.17R
MIAMI          PTCLDY    60  51  72 N5        30.17R
VIRGINIA KEY     N/A     63  52  67 N8        30.13S
WEST KENDALL   CLEAR     58  51  78 N8        30.16S
HOMESTEAD      CLEAR     57  51  80 N6        30.15S
FLAMINGO       NOT AVBL
EVERGLADES CTY NOT AVBL

STATION/POSITION TIME  TEMP    WIND        PRES    WAVE   SWELL
                       AIR SEA DIR/SP/G            HT/PER HT/PER
                 (UTC) (F)     (DEG/KT/KT) (MB)    (FT/S) (FT/S)
LAKE WORTH       0948   66 73              1021.1F
SETTLEMENT POINT 1000   63      40/ 15/ 16 1022.6R

$$



USA.gov is the U.S. government's official web portal to all federal, state and local government web resources and services.